Sexton Summit, OR

6:27 PM PST on December 08, 2019 (GMT -0800)
Sexton Summit

Weather History for KSXT - July, 2019

Change the Weather History Date:

Sunday, July 21, 2019

  Actual Average Record
Temperature  
Mean Temperature 67 °F -  
Max Temperature 82 °F 76 °F 91 °F (2005)
Min Temperature 54 °F 53 °F 45 °F (2001)
Cooling Degree Days 2    
Growing Degree Days 17 (Base 50)    
Moisture  
Dew Point 49 °F    
Average Humidity 55    
Maximum Humidity 78    
Minimum Humidity 34    
Precipitation  
Precipitation 0.00 in - - ()
Sea Level Pressure  
Sea Level Pressure 29.92 in    
Wind  
Wind Speed 6 mph (North)    
Max Wind Speed 12 mph    
Max Gust Speed -    
Visibility 10 miles    
Events      
Averages and records for this station are not official NWS values.
T = Trace of Precipitation, MM = Missing Value Source: NWS Daily Summary

Daily Weather History Graph

Daily Weather History Graph

Search for Another Location

Airport or City:

Astronomy

Jul. 21, 2019 Rise Set
Actual Time 5:54 AM PDT 8:44 PM PDT
Civil Twilight 5:21 AM PDT 9:17 PM PDT
Nautical Twilight 4:39 AM PDT 9:59 PM PDT
Astronomical Twilight 3:50 AM PDT 10:48 PM PDT
Moon 11:36 PM PDT (7/21) 10:24 AM PDT (7/21)
Length of Visible Light 15h 56m
Length of Day
14h 50m
Waning Gibbous, 79% of the Moon is Illuminated
Jul 21
Waning Gibbous
Jul 24
Last Quarter
Jul 31
New
Aug 7
First Quarter
Aug 15
Full

Hourly Weather History & Observations

Time (PDT) Temp. Dew Point Humidity Pressure Visibility Wind Dir Wind Speed Gust Speed Precip Events Conditions
12:56 AM 59.0 °F 46.0 °F 62% 29.92 in 10.0 mi North 10.4 mph - N/A   Clear
1:56 AM 57.9 °F 46.0 °F 65% 29.90 in 10.0 mi North 11.5 mph - N/A   Clear
2:56 AM 60.1 °F 41.0 °F 49% 29.89 in 10.0 mi NE 3.5 mph - N/A   Clear
3:56 AM 57.0 °F 45.0 °F 64% 29.89 in 10.0 mi North 6.9 mph - N/A   Clear
4:56 AM 54.0 °F 46.9 °F 77% 29.91 in 10.0 mi North 8.1 mph - N/A   Clear
5:56 AM 54.0 °F 46.9 °F 77% 29.92 in 10.0 mi North 8.1 mph - N/A   Clear
6:56 AM 55.9 °F 46.0 °F 69% 29.92 in 10.0 mi North 9.2 mph - N/A   Clear
7:56 AM 59.0 °F 46.0 °F 62% 29.94 in 10.0 mi North 8.1 mph - N/A   Clear
8:56 AM 64.9 °F 46.9 °F 52% 29.94 in 10.0 mi SE 4.6 mph - N/A   Clear
9:56 AM 66.9 °F 50.0 °F 54% 29.94 in 10.0 mi Calm Calm - N/A   Clear
10:56 AM 69.1 °F 53.1 °F 57% 29.94 in 10.0 mi Calm Calm - N/A   Clear
11:56 AM 71.1 °F 51.1 °F 49% 29.94 in 10.0 mi Variable 3.5 mph - N/A   Clear
12:56 PM 75.0 °F 51.1 °F 43% 29.93 in 10.0 mi Variable 3.5 mph - N/A   Clear
1:56 PM 78.1 °F 51.1 °F 39% 29.92 in 10.0 mi Variable 3.5 mph - N/A   Clear
2:56 PM 80.1 °F 51.1 °F 36% 29.91 in 10.0 mi Calm Calm - N/A   Clear
3:56 PM 80.1 °F 48.9 °F 34% 29.91 in 10.0 mi Calm Calm - N/A   Clear
4:56 PM 80.1 °F 51.1 °F 36% 29.91 in 10.0 mi Calm Calm - N/A   Clear
5:56 PM 78.1 °F 50.0 °F 37% 29.91 in 10.0 mi Calm Calm - N/A   Clear
6:56 PM 73.9 °F 51.1 °F 45% 29.91 in 10.0 mi Variable 4.6 mph - N/A   Clear
7:56 PM 71.1 °F 51.1 °F 49% 29.92 in 10.0 mi North - - N/A   Clear
8:56 PM 66.9 °F 50.0 °F 54% 29.92 in 10.0 mi NNW 6.9 mph - N/A   Clear
9:56 PM 64.0 °F 52.0 °F 65% 29.94 in 10.0 mi NNW 8.1 mph - N/A   Clear
10:56 PM 62.1 °F 53.1 °F 72% 29.94 in 10.0 mi NNW 6.9 mph - N/A   Clear
11:56 PM 60.1 °F 53.1 °F 78% 29.95 in 10.0 mi NNW 8.1 mph - N/A   Clear